Location: Unspecified
(0.0000°N, 0.0000°E)
Time: 16:01:18
(UTC+00:00)

Tiangong 1 - Pass Details

Date: 19 January 2017
Orbit: 344 x 365 km, 42.8° (Epoch: 18 January)

Event Time Altitude Azimuth Distance (km) Brightness Sun altitude
Exits shadow 05:00:52 10° 8° (N) 1,285 3.6 -16.4°
Maximum altitude 05:02:35 15° 45° (NE) 1,060 3.6 -16.0°
Drops below altitude 10° 05:04:21 10° 82° (E) 1,303 4.7 -15.5°
Sets 05:06:58 0° 108° (ESE) 2,153 6.8 -14.9°
